User: anonymous   Login
Location: Aniagüita
(10.0946°N, 66.9708°W)
Time: 07:28:39
(UTC+00:00)
Language:

OBJECT-B - Orbit

View from above orbital plane
View from above orbital plane
View from above satellite
View from above satellite

Ground track
Ground track

The orbit data is extracted from the following two-line orbital elements,

1 40382U 15004B   22269.79376562 0.00080000  00000-0  33306-3 0    02
2 40382  96.8920 303.8907 0003504  89.9583 270.0402 15.85668668    01
Epoch (UTC): 26 September 2022 19:03:01
Eccentricity: 0.0003504
inclination: 96.8920°
perigee height: 312 km
apogee height: 317 km
right ascension of ascending node: 303.8907°
argument of perigee: 89.9583°
revolutions per day: 15.85668668
mean anomaly at epoch: 270.0402°
orbit number at epoch: 0

The dashed part of the orbit path shows where the satellite is in the earth's shadow,  

DLR